Location: Apeadero de Los Molinos-Guadarrama
(40.7091°N, 4.0689°W)
Time: 12:26:58
(UTC+00:00)

H-2A R/B - Pass Details

Date: 14 May 2021
Orbit: 573 x 598 km, 98.2° (Epoch: 18 June)

Event Time Altitude Azimuth Distance (km) Brightness Sun altitude
Rises 21:33:25 0° 22° (NNE) 2,834 7.3 -19.9°
Reaches altitude 10° 21:35:46 10° 31° (NNE) 1,924 6.3 -20.2°
Enters shadow 21:38:55 32° 77° (ENE) 1,008 4.4 -20.6°
